Date String (YYYY-MM-DD hh:mm:ss) UTC,Instrument flags,absolute air pressure of the measurement (hPa),sample flow rate (lpm),inlet stack bypass flow (lpm),air temperature of the measurement (°C),ambient temperature measured by the external sensor (°C),aerosol sample conditioner tube jacket temperature (°C),OPC LED temperature (°C),internal box temperature (°C),relative humidity of the measurement (%),span deviation,mass concentration of particles derived from Lorenz-Mie calculation of OPC scattering (μg/m³),mass concentration of particles derived from Lorenz-Mie calculation of OPC scattering (μg/m³),mass concentration of particles derived from Lorenz-Mie calculation of OPC scattering (μg/m³)
DateTimeUTC,F1_M11,P_M11,Q1_M11,Q2_M11,T1_M11,T2_M11,T3_M11,T4_M11,T5_M11,U1_M11,ZSPAN_M11,X2_M11,X0_M11,X1_M11
2023-10-18 16:00:00,SystemResetWarning,0833.2,5.00,000.00,029.3,027.9,000.0,037.7,031.0,15.3,0000.0,0003.77,0014.07,0002.14
2023-10-18 16:01:00,SystemResetWarning,0833.1,5.00,000.00,029.3,026.8,000.0,037.6,030.9,15.2,0000.0,0003.75,0013.93,0002.15
2023-10-18 16:02:00,SystemResetWarning,0833.2,5.00,000.00,029.2,025.3,000.0,037.6,030.6,15.2,0000.0,0003.75,0015.16,0002.12
2023-10-18 16:03:00,SystemResetWarning,0833.1,5.01,000.00,029.1,025.0,000.0,037.5,030.5,15.3,0000.0,0003.76,0015.16,0002.11
2023-10-18 16:04:00,SystemResetWarning,0833.2,5.01,000.00,029.0,025.2,000.0,037.5,030.3,15.4,0000.0,0003.76,0014.96,0002.13
2023-10-18 16:05:00,SystemResetWarning,0833.2,5.00,000.00,028.9,025.5,000.0,037.5,030.3,15.6,0000.0,0003.77,0015.10,0002.15
2023-10-18 16:06:00,SystemResetWarning,0833.2,5.01,000.00,028.9,025.9,000.0,037.5,030.2,15.4,0000.0,0003.82,0015.33,0002.14
2023-10-18 16:07:00,SystemResetWarning,0833.2,5.00,000.00,028.8,026.2,000.0,037.5,030.3,15.3,0000.0,0003.84,0015.38,0002.12
2023-10-18 16:08:00,SystemResetWarning,0833.1,5.00,000.00,028.8,026.4,000.0,037.4,030.3,15.4,0000.0,0003.81,0015.45,0002.10
2023-10-18 16:09:00,SystemResetWarning,0833.1,5.01,000.00,028.8,026.7,000.0,037.4,030.3,15.2,0000.0,0003.78,0014.22,0002.10
2023-10-18 16:10:00,SystemResetWarning,0833.1,5.00,000.00,028.8,026.9,000.0,037.4,030.4,15.3,0000.0,0003.76,0014.29,0002.11
2023-10-18 16:11:00,SystemResetWarning,0833.1,4.99,000.00,028.8,027.0,000.0,037.4,030.4,15.3,0000.0,0003.71,0014.40,0002.08
2023-10-18 16:12:00,SystemResetWarning,0833.1,5.00,000.00,028.8,027.1,000.0,037.4,030.4,15.3,0000.0,0003.69,0014.20,0002.06
2023-10-18 16:13:00,SystemResetWarning,0833.0,5.00,000.00,028.8,027.2,000.0,037.4,030.4,15.1,0000.0,0003.69,0013.40,0002.07
2023-10-18 16:14:00,SystemResetWarning,0833.2,5.00,000.00,028.8,027.3,000.0,037.3,030.5,15.2,0000.0,0003.67,0013.35,0002.06
2023-10-18 16:15:00,SystemResetWarning,0833.0,5.00,000.00,028.9,027.4,000.0,037.3,030.5,15.3,0000.0,0003.67,0012.91,0002.03
2023-10-18 16:16:00,SystemResetWarning,0833.1,5.00,000.00,028.9,027.4,000.0,037.3,030.5,15.3,0000.0,0003.69,0012.93,0002.00
2023-10-18 16:17:00,SystemResetWarning,0833.1,5.00,000.00,028.9,027.5,000.0,037.3,030.5,15.4,0000.0,0003.69,0013.20,0001.99
2023-10-18 16:18:00,SystemResetWarning,0833.4,4.99,000.00,028.9,027.5,000.0,037.4,030.5,15.4,0000.0,0003.66,0012.72,0001.98
2023-10-18 16:19:00,SystemResetWarning,0833.4,4.99,000.00,028.9,027.6,000.0,037.4,030.6,15.3,0000.0,0003.69,0012.81,0001.98
2023-10-18 16:20:00,SystemResetWarning,0833.2,5.01,000.00,029.0,027.6,000.0,037.4,030.6,15.2,0000.0,0003.67,0014.15,0001.99
2023-10-18 16:21:00,SystemResetWarning,0833.0,5.01,000.00,029.0,027.7,000.0,037.4,030.6,15.1,0000.0,0003.67,0014.23,0002.00
2023-10-18 16:22:00,SystemResetWarning,0833.1,4.99,000.00,029.0,027.7,000.0,037.4,030.6,15.1,0000.0,0003.70,0014.07,0002.03
2023-10-18 16:23:00,SystemResetWarning,0833.3,4.99,000.00,029.0,027.7,000.0,037.4,030.7,15.2,0000.0,0003.73,0014.36,0002.06
2023-10-18 16:24:00,SystemResetWarning,0832.9,5.01,000.00,029.0,027.8,000.0,037.4,030.7,15.1,0000.0,0003.76,0013.40,0002.10
2023-10-18 16:25:00,SystemResetWarning,0832.9,5.01,000.00,029.0,027.8,000.0,037.4,030.7,15.1,0000.0,0003.89,0014.40,0002.14
2023-10-18 16:26:00,SystemResetWarning,0833.1,5.01,000.00,029.1,027.8,000.0,037.4,030.7,15.1,0000.0,0003.95,0014.93,0002.18
2023-10-18 16:27:00,SystemResetWarning,0832.9,4.99,000.00,029.1,027.8,000.0,037.5,030.7,15.1,0000.0,0003.95,0015.02,0002.21
2023-10-18 16:28:00,SystemResetWarning,0833.0,4.98,000.00,029.1,027.9,000.0,037.5,030.7,15.2,0000.0,0003.94,0014.93,0002.24
2023-10-18 16:29:00,SystemResetWarning,0832.9,5.01,000.00,029.1,027.9,000.0,037.5,030.8,15.2,0000.0,0003.99,0015.06,0002.28
2023-10-18 16:30:00,SystemResetWarning,0833.1,5.01,000.00,029.1,027.8,000.0,037.5,030.8,15.3,0000.0,0004.03,0015.07,0002.32
2023-10-18 16:31:00,SystemResetWarning,0833.1,4.98,000.00,029.1,026.4,000.0,037.5,030.7,15.3,0000.0,0004.08,0013.85,0002.36
2023-10-18 16:32:00,SystemResetWarning,0833.1,5.00,000.00,029.0,025.0,000.0,037.4,030.4,15.3,0000.0,0004.12,0013.75,0002.39
2023-10-18 16:33:00,SystemResetWarning,0833.2,5.02,000.00,028.9,024.9,000.0,037.3,030.3,15.3,0000.0,0004.15,0013.34,0002.41
2023-10-18 16:34:00,SystemResetWarning,0832.8,5.00,000.00,028.8,025.1,000.0,037.3,030.2,15.5,0000.0,0004.16,0013.10,0002.44
2023-10-18 16:35:00,SystemResetWarning,0832.7,5.00,000.00,028.7,025.5,000.0,037.3,030.2,15.5,0000.0,0004.16,0013.60,0002.45
2023-10-18 16:36:00,SystemResetWarning,0832.7,5.00,000.00,028.7,025.9,000.0,037.3,030.2,15.5,0000.0,0004.09,0012.95,0002.46
2023-10-18 16:37:00,SystemResetWarning,0832.8,5.00,000.00,028.7,026.2,000.0,037.3,030.2,15.6,0000.0,0004.06,0012.02,0002.47
2023-10-18 16:38:00,SystemResetWarning,0832.8,4.99,000.00,028.7,026.4,000.0,037.3,030.2,15.7,0000.0,0004.03,0011.85,0002.48
2023-10-18 16:39:00,SystemResetWarning,0832.8,5.00,000.00,028.7,026.7,000.0,037.3,030.2,15.6,0000.0,0004.06,0012.36,0002.51
2023-10-18 16:40:00,SystemResetWarning,0832.7,5.01,000.00,028.7,026.9,000.0,037.3,030.3,15.5,0000.0,0004.04,0011.85,0002.54
2023-10-18 16:41:00,SystemResetWarning,0832.7,5.01,000.00,028.7,027.0,000.0,037.3,030.4,15.6,0000.0,0004.04,0011.81,0002.55
2023-10-18 16:42:00,SystemResetWarning,0832.7,5.00,000.00,028.7,027.2,000.0,037.2,030.4,15.5,0000.0,0004.02,0012.39,0002.55
2023-10-18 16:43:00,SystemResetWarning,0832.7,5.00,000.00,028.7,027.3,000.0,037.3,030.4,15.5,0000.0,0003.99,0012.19,0002.56
2023-10-18 16:44:00,SystemResetWarning,0832.6,5.00,000.00,028.8,027.4,000.0,037.3,030.5,15.6,0000.0,0004.01,0012.96,0002.60
2023-10-18 16:45:00,SystemResetWarning,0832.6,5.00,000.00,028.8,027.5,000.0,037.3,030.5,15.6,0000.0,0004.03,0013.80,0002.62
2023-10-18 16:46:00,SystemResetWarning,0832.6,5.00,000.00,028.8,027.5,000.0,037.3,030.5,15.5,0000.0,0004.06,0013.94,0002.64
2023-10-18 16:47:00,SystemResetWarning,0832.6,5.00,000.00,028.9,027.6,000.0,037.3,030.5,15.5,0000.0,0004.10,0014.74,0002.67
2023-10-18 16:48:00,SystemResetWarning,0832.6,5.00,000.00,028.9,027.7,000.0,037.3,030.6,15.3,0000.0,0004.12,0014.99,0002.70
2023-10-18 16:49:00,SystemResetWarning,0832.6,5.00,000.00,028.9,027.7,000.0,037.3,030.6,15.4,0000.0,0004.15,0015.27,0002.74
2023-10-18 16:50:00,SystemResetWarning,0832.7,4.99,000.00,028.9,027.8,000.0,037.3,030.6,15.5,0000.0,0004.13,0014.92,0002.75
2023-10-18 16:51:00,SystemResetWarning,0832.6,4.99,000.00,029.0,027.8,000.0,037.3,030.7,15.4,0000.0,0004.17,0015.52,0002.77
2023-10-18 16:52:00,SystemResetWarning,0832.6,5.01,000.00,029.0,027.8,000.0,037.4,030.7,15.4,0000.0,0004.21,0016.53,0002.79
2023-10-18 16:53:00,SystemResetWarning,0832.7,5.01,000.00,029.0,027.9,000.0,037.4,030.7,15.4,0000.0,0004.25,0016.70,0002.83
2023-10-18 16:54:00,SystemResetWarning,0832.6,4.99,000.00,029.0,027.9,000.0,037.4,030.8,15.3,0000.0,0004.30,0016.74,0002.84
2023-10-18 16:55:00,SystemResetWarning,0832.6,4.98,000.00,029.1,027.2,000.0,037.4,030.8,15.3,0000.0,0004.36,0016.51,0002.84
2023-10-18 16:56:00,SystemResetWarning,0832.6,5.00,000.00,029.0,025.2,000.0,037.3,030.5,15.4,0000.0,0004.38,0016.37,0002.83
2023-10-18 16:57:00,SystemResetWarning,0832.6,5.00,000.00,028.9,024.5,000.0,037.3,030.4,15.3,0000.0,0004.39,0016.50,0002.82
2023-10-18 16:58:00,SystemResetWarning,0832.6,5.01,000.00,028.8,024.7,000.0,037.2,030.2,15.4,0000.0,0004.41,0015.40,0002.84
2023-10-18 16:59:00,SystemResetWarning,0832.7,5.01,000.00,028.7,025.0,000.0,037.2,030.1,15.5,0000.0,0004.42,0015.38,0002.86
